SCP
-0 -0 -0 -0 -0 -0 -0 -0 -0 -0 -0 -0 -0 -0 0 0 0 -0 -0 -0 0 0 0 0 0 0 0 0 0 0 -0 0 -0 -0 0 -0 -0 -0 -0 -0 0 0 0 -0 0 -0 0
-0 -0 0 0 0 -0 -0 -0 -0 -0 -0 -0 -0 -0 -0 -0 -0 -0 -0 -0 0 0 0 0 0 0 0 0 0 0 -0 0 -0 -0 0 0 0 -0 -0 -0 -0 -0 0 0 0 -0 -0
0 0 0 0 0 -0 -0 -0 -0 -0 0 0 0 -0 -0 -0 -0 -0 -0 -0 -0 0 0 0 0 0 0 -0 0 0 0 -0 -0 0 0 0 0 0 0 -0 -0 -0 -0 0 -0 0 0
0 0 -0 -0 -0 -0 -0 -0 -0 -0 -0 -0 -0 -0 -0 -0 -0 -0 -0 -0 -0 -0 0 0 0 0 0 0 0 -0 0 -0 0 0 0 0 0 0 0 0 -0 -0 -0 -0 0 0 -0
0 -0 -0 -0 -0 -0 -0 -0 -0 -0 -0 -0 -0 -0 -0 -0 -0 -0 -0 -0 -0 -0 0 0 0 0 0 0 0 0 0 -0 0 0 0 0 0 0 0 0 0 0 -0 0 -0 -0 0
-0 -0 -0 -0 -0 -0 -0 -0 -0 -0 -0 -0 -0 -0 -0 -0 -0 -0 -0 -0 -0 0 0 0 0 0 0 0 0 0 0 0 0 0 0 0 0 0 0 0 0 0 0 -0 0 0 -0
-0 -0 -0 -0 -0 0 -0 -0 -0 -0 -0 -0 -0 -0 -0 -0 -0 -0 0 0 0 -0 0 0 0 0 0 0 0 0 0 0 0 0 0 0 0 0 0 -0 -0 0 -0 0 0 -0 0
-0 0 0 0 0 0 0 0 -0 -0 -0 -0 -0 -0 -0 -0 -0 -0 -0 0 0 0 -0 -0 -0 -0 0 0 0 0 0 0 0 0 0 0 0 0 0 -0 0 0 0 0 0 0 0
0 0 0 0 0 0 0 0 -0 0 0 0 0 -0 -0 -0 -0 0 0 0 0 0 0 -0 0 0 0 0 0 0 0 0 0 0 0 0 0 -0 0 0 0 0 0 0 0 0 0
0 0 0 0 0 0 0 -0 0 0 0 0 0 -0 -0 -0 0 0 0 0 -0 0 0 0 0 0 0 0 0 0 0 0 0 0 0 0 0 -0 -0 0 0 0 0 0 0 0 0
0 0 0 0 0 0 -0 0 0 0 0 -0 -0 0 0 0 0 0 0 -0 -0 -0 0 0 0 0 0 0 0 0 -0 0 0 0 0 0 0 0 0 0 0 0 -0 0 0 0 0
0 0 0 0 0 0 -0 -0 -0 -0 -0 -0 -0 -0 -0 0 0 -0 -0 -0 0 0 0 0 0 0 0 0 0 0 0 -0 0 0 0 0 -0 0 0 0 0 0 0 0 0 0 0
0 0 0 0 0 0 -0 -0 -0 0 -0 -0 -0 -0 -0 -0 -0 -0 -0 -0 0 0 0 0 0 0 0 0 0 0 0 0 0 0 0 0 0 0 -0 0 0 0 0 0 0 0 0
0 0 0 0 0 -0 0 0 0 0 -0 -0 -0 -0 -0 -0 -0 -0 -0 -0 0 0 0 0 0 0 0 0 0 0 0 0 0 0 0 0 0 -0 0 0 0 0 0 0 0 0 0
0 0 0 0 0 -0 0 -0 0 0 0 -0 -0 0 -0 0 -0 -0 -0 0 0 0 0 0 0 0 0 0 0 0 0 0 0 0 0 0 0 0 0 0 -0 0 0 0 -0 -0 0
0 0 0 0 0 0 0 0 0 0 -0 -0 0 -0 0 0 0 0 0 0 0 0 0 0 0 0 0 0 0 0 0 0 0 0 -0 0 0 0 0 0 0 0 0 0 0 0 0
0 0 0 0 0 0 0 0 0 0 -0 -0 0 0 0 0 0 0 0 0 0 0 0 0 0 0 0 0 0 0 0 0 0 0 0 0 0 0 0 0 0 0 -0 0 0 0 -0
0 0 0 0 0 0 0 0 0 0 -0 0 0 0 0 0 0 0 0 0 0 0 0 0 0 0 0 0 0 0 0 0 0 0 0 0 0 0 0 0 0 0 0 0 0 0 0
0 0 0 0 0 0 0 0 0 0 0 0 0 0 0 0 0 0 0 0 0 0 0 0 0 0 0 0 0 0 0 0 0 0 0 0 0 0 0 0 0 0 0 0 0 0 0
0 0 0 0 0 0 0 0 0 0 0 0 0 0 0 0 0 0 0 0 0 0 0 0 0 0 0 -0 0 0 0 0 0 0 0 0 0 0 0 0 0 0 0 0 0 0 0
0 0 0 0 0 0 0 0 0 0 0 0 0 0 0 0 0 0 0 0 0 0 0 0 0 -0 0 0 0 0 0 0 0 0 0 0 0 0 0 0 0 0 -0 0 -0 0 0
0 0 0 0 0 0 0 0 0 0 0 0 0 0 0 0 0 0 0 0 0 0 0 0 -0 0 0 0 -0 0 0 0 0 0 0 1 0 0 0 0 0 0 -0 -0 0 0 0
0 0 0 0 0 0 0 0 0 0 0 0 0 0 0 0 0 0 0 0 0 0 -0 0 0 0 0 0 -0 -0 0 0 0 0 1 1 0 1 0 -0 -0 -0 0 0 0 0 0
0 0 0 0 0 0 0 0 0 0 0 0 0 0 0 0 0 0 0 0 -0 -0 -0 0 0 -0 0 0 0 0 0 0 0 0 0 1 1 1 0 0 0 -0 0 0 0 0 1
0 0 0 0 0 0 0 0 0 0 0 0 0 0 0 0 0 0 0 0 0 -0 -0 0 -0 -0 -0 0 0 0 0 0 0 0 0 2 1 1 0 0 0 0 0 0 0 0 0
0 0 0 0 0 0 0 0 0 0 0 0 0 0 0 0 0 0 -0 -0 0 -0 -0 0 -0 -0 -0 0 0 0 0 0 0 0 0 1 1 1 0 0 0 1 0 -0 0 0 0
0 0 0 0 0 0 0 0 0 0 0 0 0 0 0 0 0 0 0 -0 -0 -0 -0 -0 0 0 -0 0 0 0 0 1 0 0 0 0 1 1 1 0 0 0 0 0 0 0 1
0 0 0 0 0 0 0 0 0 0 0 0 0 0 0 0 0 0 -0 -0 -0 -0 -0 -0 0 0 0 0 0 0 0 0 0 0 0 0 0 0 1 0 0 -0 0 1 1 1 1
0 0 0 0 0 0 0 0 0 0 0 0 0 0 0 0 0 0 -0 0 -0 -0 0 0 0 0 0 0 0 0 -0 -0 0 0 0 0 0 1 1 0 0 0 0 1 1 0 1
Wind_Speed_500mb
23 23 24 24 24 24 25 28 29 29 31 31 33 37 41 43 47 46 45 41 40 39 38 34 34 35 32 17 28 11 7 11 9 11 12 19 27 30 30 34 37 29 27 34 21 7 13
22 25 27 29 29 29 29 29 30 31 34 34 34 35 39 39 40 41 43 43 38 37 34 30 30 28 23 29 5 13 5 16 14 14 18 22 23 29 33 38 37 35 22 37 23 19 21
25 26 27 29 31 32 33 33 34 37 37 36 37 37 37 39 39 37 37 38 36 34 30 24 25 25 25 46 7 10 16 19 18 19 20 20 25 20 24 28 37 41 32 21 36 27 16
24 25 26 28 29 32 34 36 37 35 36 39 41 41 40 40 39 36 33 31 30 29 25 21 19 20 23 21 24 31 25 23 23 22 22 22 21 28 32 30 30 26 30 27 33 32 30
25 26 27 28 29 31 32 35 38 41 41 39 38 40 43 41 38 38 35 27 19 22 19 16 16 18 31 16 32 30 27 30 26 23 22 20 22 31 31 29 25 26 25 36 37 40 30
30 32 33 35 37 38 39 40 40 38 38 41 43 42 41 39 35 34 30 19 3 14 14 15 22 19 43 32 28 35 32 35 31 26 25 25 23 27 29 28 27 27 31 32 35 38 36
28 29 30 31 33 35 37 37 38 39 41 38 37 39 41 36 29 25 23 21 1 2 16 31 16 32 18 23 10 24 30 32 37 32 30 38 26 32 39 40 38 41 33 36 34 28 35
28 28 29 31 34 35 37 39 41 41 40 39 36 36 35 30 21 17 25 21 12 18 27 40 61 55 45 21 29 31 33 32 44 38 38 32 36 39 38 39 38 40 39 28 32 19 16
27 27 30 33 37 39 41 43 43 42 43 42 36 30 30 19 19 20 15 11 17 24 18 30 58 63 57 41 37 37 48 48 34 42 40 41 40 43 44 39 40 37 36 28 31 15 10
27 29 33 37 41 43 46 48 48 46 44 40 34 26 27 7 15 14 5 18 17 18 11 13 21 27 57 56 54 49 45 48 41 45 44 42 47 44 41 40 37 31 27 33 33 27 20
28 32 35 38 42 45 48 48 47 45 41 37 32 21 20 27 11 20 20 21 19 11 10 15 19 3 17 58 10 55 69 56 48 44 30 44 45 45 37 40 28 29 37 37 37 31 31
30 31 34 37 41 46 48 48 45 40 37 33 29 18 12 17 16 20 22 22 14 12 11 4 15 10 22 45 64 49 61 63 53 48 49 46 58 45 42 38 32 36 33 17 18 21 25
29 31 34 37 42 47 48 45 42 38 34 29 27 17 10 8 9 26 22 13 10 11 18 7 14 7 19 28 36 49 43 50 44 41 47 47 52 44 48 38 34 39 32 15 20 22 28
30 32 34 37 43 48 46 40 37 35 30 25 23 26 6 15 17 21 13 12 10 17 9 31 25 34 37 26 33 43 52 43 56 55 33 40 38 55 29 32 34 37 34 23 35 25 29
30 32 34 38 43 49 42 35 33 29 27 24 16 16 15 7 12 9 17 12 7 8 27 22 28 31 35 31 30 38 50 50 52 54 47 39 46 46 37 34 45 34 38 39 41 40 22
31 33 35 38 43 46 42 32 27 24 25 25 15 7 2 14 10 7 11 17 21 28 32 26 29 25 37 42 37 36 46 54 50 56 57 48 28 43 46 37 46 46 31 30 27 33 32
30 32 34 37 42 45 44 31 23 19 20 19 14 10 1 8 9 14 15 23 31 29 27 34 29 36 44 41 39 42 52 44 48 54 55 49 36 30 40 39 40 34 40 27 25 22 28
30 31 32 35 41 44 43 29 19 15 15 14 13 8 2 14 16 16 16 22 23 31 34 35 41 36 41 42 35 52 56 50 64 54 56 55 18 28 42 36 41 40 39 35 20 25 20
32 32 32 35 39 42 38 28 15 11 15 14 13 15 2 9 10 11 22 28 38 27 31 38 38 43 43 43 31 45 49 53 62 53 50 44 30 21 34 32 39 40 41 35 22 20 16
28 31 33 35 38 40 37 28 11 6 7 8 13 7 6 6 18 15 23 28 30 31 37 36 44 45 49 48 32 48 53 57 58 51 70 47 21 26 29 33 36 39 39 34 34 16 19
29 30 31 32 36 36 36 27 12 7 5 3 9 7 11 10 13 20 26 30 33 38 41 48 41 49 47 28 26 36 32 42 52 41 33 36 25 32 42 37 45 41 42 39 40 33 23
30 30 31 34 39 39 35 29 15 14 13 4 10 12 17 32 27 22 22 23 33 33 32 30 38 40 43 17 21 47 48 30 26 38 27 25 19 29 34 29 33 45 42 43 41 30 26
29 30 30 33 38 39 41 31 20 24 23 10 7 13 15 14 16 17 19 26 26 35 45 31 32 29 34 23 31 47 53 54 50 37 30 22 20 22 33 46 45 39 44 44 31 29 32
29 29 30 34 39 42 43 31 25 35 35 15 10 11 12 14 14 19 29 39 43 41 36 53 23 37 32 17 42 60 73 75 52 37 29 21 27 22 26 26 24 26 34 22 29 33 47
27 28 29 33 38 40 36 26 18 34 38 36 17 12 8 12 19 33 23 31 42 40 44 53 46 35 15 11 18 30 38 39 37 36 27 18 19 20 19 22 11 15 9 2 25 24 62
26 27 28 32 35 34 29 19 13 30 37 35 23 28 10 10 13 12 44 45 23 23 32 49 39 24 23 13 18 28 17 16 15 14 24 21 18 20 17 16 20 23 43 37 22 21 46
27 26 26 30 32 28 23 17 13 25 34 31 28 28 22 11 36 24 16 31 37 32 17 47 32 22 23 16 24 28 22 20 23 28 27 21 23 28 25 14 11 37 43 39 22 10 45
28 27 24 27 28 25 20 17 12 20 28 28 27 32 31 15 51 56 30 39 37 36 14 35 24 21 15 18 16 22 10 10 21 36 40 30 24 25 26 8 8 68 26 9 20 45 48
28 27 24 25 26 22 18 17 15 20 22 24 27 27 26 34 49 66 67 57 65 62 56 26 33 54 13 8 13 6 11 11 23 25 38 30 28 16 7 3 61 82 25 29 36 53 54
Wind_Direction_500mb
8 2 2 2 359 353 349 345 340 337 331 326 317 311 304 302 298 293 290 292 295 297 303 313 318 321 330 308 283 283 281 256 212 184 244 232 229 235 241 248 253 245 253 262 261 243 276
11 8 5 4 3 0 358 352 347 342 337 335 333 329 324 315 306 299 291 285 285 291 294 306 312 317 318 278 267 296 263 223 209 235 244 233 240 248 258 253 263 253 240 266 256 240 239
22 17 13 8 2 359 357 355 352 348 345 342 338 332 326 324 325 316 303 291 280 276 285 294 301 304 284 248 216 236 221 221 235 237 246 246 248 253 260 277 260 277 273 261 258 238 232
22 18 14 8 2 357 353 350 348 348 347 345 342 338 333 327 326 326 320 304 285 273 276 285 284 285 259 228 242 251 232 222 229 238 243 256 250 256 256 255 271 268 253 256 235 235 224
22 17 12 7 2 358 354 350 347 344 343 343 343 339 336 335 330 331 330 317 296 270 265 258 262 239 258 242 224 213 214 225 227 233 239 246 248 240 240 242 253 244 239 230 257 199 223
12 10 5 1 358 354 353 350 349 347 343 340 339 340 340 339 337 335 342 333 333 266 249 244 234 247 250 234 229 223 224 222 221 223 228 230 239 231 236 218 229 217 228 251 226 213 205
7 4 359 358 356 354 353 352 351 347 344 342 339 339 342 342 347 350 17 26 308 145 222 224 215 217 290 216 168 197 200 213 215 216 223 215 225 224 227 228 234 263 217 217 251 215 186
1 359 358 356 355 355 355 352 349 348 346 345 342 343 345 345 12 39 18 354 12 319 292 250 252 248 252 250 211 219 202 209 214 216 217 234 227 235 234 238 230 248 264 252 230 176 171
359 359 356 355 355 354 352 349 347 348 346 345 346 348 349 1 45 21 13 348 339 335 278 276 231 232 225 231 225 222 202 208 214 220 222 226 229 224 245 235 245 226 246 251 259 145 134
359 359 357 355 354 353 351 349 348 347 346 345 347 353 358 20 29 352 335 340 333 325 279 252 195 229 220 222 238 225 213 209 229 226 231 237 239 245 217 244 230 244 229 255 253 244 202
358 354 354 352 350 349 348 346 346 347 345 346 349 357 26 24 352 25 326 324 316 301 290 91 118 95 208 208 227 213 219 211 224 222 218 232 243 240 245 230 233 231 243 219 246 253 255
353 351 348 347 348 346 345 344 346 346 348 348 349 352 6 19 346 340 328 317 305 232 239 154 133 213 229 209 228 256 203 226 224 237 241 242 226 229 247 245 207 239 246 289 214 241 241
346 346 346 344 345 343 343 343 345 347 351 350 353 355 5 341 334 332 332 297 235 256 25 339 351 219 229 244 219 226 211 212 219 220 230 231 240 222 227 210 231 227 228 206 219 228 236
343 343 341 341 343 341 339 342 346 348 350 354 1 17 37 10 333 324 328 261 257 316 327 353 335 331 306 265 248 217 238 209 219 227 224 224 220 230 198 215 218 213 223 220 209 215 228
337 336 337 339 341 342 341 344 347 350 347 346 24 8 33 1 316 342 294 244 284 355 342 356 324 288 278 281 276 229 226 237 218 220 230 223 230 214 191 216 232 195 219 229 263 290 276
333 332 334 337 341 344 341 342 345 347 344 345 343 321 206 352 325 305 265 259 305 321 315 313 293 305 293 296 294 265 243 231 227 216 232 245 241 223 200 205 229 240 199 227 241 256 269
328 329 330 334 339 341 341 337 341 342 350 359 24 269 172 344 314 261 256 290 307 305 323 296 293 279 286 285 304 302 300 235 225 226 215 240 249 236 202 197 217 217 232 212 239 248 256
324 324 327 331 336 338 336 334 336 339 346 7 317 268 33 0 275 243 262 283 306 303 296 289 287 269 277 287 297 300 291 287 219 212 213 229 242 252 238 190 210 226 223 228 222 235 266
320 321 323 327 332 335 333 333 327 334 338 341 276 301 264 347 273 305 330 319 309 283 291 290 278 274 268 271 285 276 281 276 280 202 215 212 224 242 255 197 207 225 216 223 220 254 282
314 316 320 324 329 333 332 331 309 311 317 336 297 278 186 261 273 284 303 303 299 301 295 282 284 280 276 260 264 273 295 296 299 253 202 201 200 225 229 202 196 215 227 213 226 233 235
312 315 315 319 322 326 324 322 287 241 226 309 268 354 7 295 302 334 318 311 301 297 294 293 283 261 256 271 286 291 301 329 326 198 185 188 220 221 248 286 201 200 216 219 214 213 228
309 310 312 317 321 324 321 313 275 219 192 233 297 332 339 295 303 303 291 278 276 295 288 286 291 278 276 225 264 295 304 345 307 335 190 177 215 231 249 250 224 198 198 229 204 191 213
304 305 308 314 319 319 319 307 273 200 195 235 262 285 274 284 276 287 303 315 306 295 301 269 285 261 278 287 219 278 285 295 287 300 315 192 199 222 246 217 226 204 192 206 199 214 217
300 301 308 315 320 321 320 306 267 203 198 220 261 296 277 267 279 283 296 295 296 288 293 296 265 303 290 298 282 285 275 267 269 270 265 284 194 224 246 242 217 172 194 215 195 126 99
296 300 308 316 321 322 321 309 260 206 198 211 244 269 291 271 283 288 315 304 295 294 286 281 278 236 281 192 268 268 279 263 260 253 239 236 230 230 245 235 137 160 58 198 174 92 110
292 298 308 317 323 324 324 312 250 204 200 214 238 244 262 316 271 240 309 294 288 314 298 271 255 244 239 242 264 256 258 205 195 180 207 205 253 243 222 222 202 169 160 199 140 163 121
289 294 305 315 321 318 316 315 252 203 201 210 237 244 240 252 277 280 295 309 301 295 286 301 333 241 218 253 251 268 254 275 202 197 187 199 217 226 241 207 295 322 167 164 175 144 117
287 292 301 309 317 314 311 293 263 218 207 213 242 248 242 253 272 278 274 280 274 282 279 305 320 249 226 251 256 268 276 283 273 187 191 194 207 219 242 205 29 289 48 84 109 116 126
286 289 294 302 310 309 294 292 249 230 226 225 246 249 251 254 265 283 283 269 255 258 267 272 286 301 294 274 238 344 304 328 322 194 174 201 209 205 354 95 139 192 142 117 128 120 120
Wind_Speed_850mb
23 23 24 24 24 24 25 28 29 29 31 31 33 37 41 43 47 46 45 41 40 39 38 34 34 35 32 17 28 11 7 11 9 11 12 19 27 30 30 34 37 29 27 34 21 7 13
22 25 27 29 29 29 29 29 30 31 34 34 34 35 39 39 40 41 43 43 38 37 34 30 30 28 23 29 5 13 5 16 14 14 18 22 23 29 33 38 37 35 22 37 23 19 21
25 26 27 29 31 32 33 33 34 37 37 36 37 37 37 39 39 37 37 38 36 34 30 24 25 25 25 46 7 10 16 19 18 19 20 20 25 20 24 28 37 41 32 21 36 27 16
24 25 26 28 29 32 34 36 37 35 36 39 41 41 40 40 39 36 33 31 30 29 25 21 19 20 23 21 24 31 25 23 23 22 22 22 21 28 32 30 30 26 30 27 33 32 30
25 26 27 28 29 31 32 35 38 41 41 39 38 40 43 41 38 38 35 27 19 22 19 16 16 18 31 16 32 30 27 30 26 23 22 20 22 31 31 29 25 26 25 36 37 40 30
30 32 33 35 37 38 39 40 40 38 38 41 43 42 41 39 35 34 30 19 3 14 14 15 22 19 43 32 28 35 32 35 31 26 25 25 23 27 29 28 27 27 31 32 35 38 36
28 29 30 31 33 35 37 37 38 39 41 38 37 39 41 36 29 25 23 21 1 2 16 31 16 32 18 23 10 24 30 32 37 32 30 38 26 32 39 40 38 41 33 36 34 28 35
28 28 29 31 34 35 37 39 41 41 40 39 36 36 35 30 21 17 25 21 12 18 27 40 61 55 45 21 29 31 33 32 44 38 38 32 36 39 38 39 38 40 39 28 32 19 16
27 27 30 33 37 39 41 43 43 42 43 42 36 30 30 19 19 20 15 11 17 24 18 30 58 63 57 41 37 37 48 48 34 42 40 41 40 43 44 39 40 37 36 28 31 15 10
27 29 33 37 41 43 46 48 48 46 44 40 34 26 27 7 15 14 5 18 17 18 11 13 21 27 57 56 54 49 45 48 41 45 44 42 47 44 41 40 37 31 27 33 33 27 20
28 32 35 38 42 45 48 48 47 45 41 37 32 21 20 27 11 20 20 21 19 11 10 15 19 3 17 58 10 55 69 56 48 44 30 44 45 45 37 40 28 29 37 37 37 31 31
30 31 34 37 41 46 48 48 45 40 37 33 29 18 12 17 16 20 22 22 14 12 11 4 15 10 22 45 64 49 61 63 53 48 49 46 58 45 42 38 32 36 33 17 18 21 25
29 31 34 37 42 47 48 45 42 38 34 29 27 17 10 8 9 26 22 13 10 11 18 7 14 7 19 28 36 49 43 50 44 41 47 47 52 44 48 38 34 39 32 15 20 22 28
30 32 34 37 43 48 46 40 37 35 30 25 23 26 6 15 17 21 13 12 10 17 9 31 25 34 37 26 33 43 52 43 56 55 33 40 38 55 29 32 34 37 34 23 35 25 29
30 32 34 38 43 49 42 35 33 29 27 24 16 16 15 7 12 9 17 12 7 8 27 22 28 31 35 31 30 38 50 50 52 54 47 39 46 46 37 34 45 34 38 39 41 40 22
31 33 35 38 43 46 42 32 27 24 25 25 15 7 2 14 10 7 11 17 21 28 32 26 29 25 37 42 37 36 46 54 50 56 57 48 28 43 46 37 46 46 31 30 27 33 32
30 32 34 37 42 45 44 31 23 19 20 19 14 10 1 8 9 14 15 23 31 29 27 34 29 36 44 41 39 42 52 44 48 54 55 49 36 30 40 39 40 34 40 27 25 22 28
30 31 32 35 41 44 43 29 19 15 15 14 13 8 2 14 16 16 16 22 23 31 34 35 41 36 41 42 35 52 56 50 64 54 56 55 18 28 42 36 41 40 39 35 20 25 20
32 32 32 35 39 42 38 28 15 11 15 14 13 15 2 9 10 11 22 28 38 27 31 38 38 43 43 43 31 45 49 53 62 53 50 44 30 21 34 32 39 40 41 35 22 20 16
28 31 33 35 38 40 37 28 11 6 7 8 13 7 6 6 18 15 23 28 30 31 37 36 44 45 49 48 32 48 53 57 58 51 70 47 21 26 29 33 36 39 39 34 34 16 19
29 30 31 32 36 36 36 27 12 7 5 3 9 7 11 10 13 20 26 30 33 38 41 48 41 49 47 28 26 36 32 42 52 41 33 36 25 32 42 37 45 41 42 39 40 33 23
30 30 31 34 39 39 35 29 15 14 13 4 10 12 17 32 27 22 22 23 33 33 32 30 38 40 43 17 21 47 48 30 26 38 27 25 19 29 34 29 33 45 42 43 41 30 26
29 30 30 33 38 39 41 31 20 24 23 10 7 13 15 14 16 17 19 26 26 35 45 31 32 29 34 23 31 47 53 54 50 37 30 22 20 22 33 46 45 39 44 44 31 29 32
29 29 30 34 39 42 43 31 25 35 35 15 10 11 12 14 14 19 29 39 43 41 36 53 23 37 32 17 42 60 73 75 52 37 29 21 27 22 26 26 24 26 34 22 29 33 47
27 28 29 33 38 40 36 26 18 34 38 36 17 12 8 12 19 33 23 31 42 40 44 53 46 35 15 11 18 30 38 39 37 36 27 18 19 20 19 22 11 15 9 2 25 24 62
26 27 28 32 35 34 29 19 13 30 37 35 23 28 10 10 13 12 44 45 23 23 32 49 39 24 23 13 18 28 17 16 15 14 24 21 18 20 17 16 20 23 43 37 22 21 46
27 26 26 30 32 28 23 17 13 25 34 31 28 28 22 11 36 24 16 31 37 32 17 47 32 22 23 16 24 28 22 20 23 28 27 21 23 28 25 14 11 37 43 39 22 10 45
28 27 24 27 28 25 20 17 12 20 28 28 27 32 31 15 51 56 30 39 37 36 14 35 24 21 15 18 16 22 10 10 21 36 40 30 24 25 26 8 8 68 26 9 20 45 48
28 27 24 25 26 22 18 17 15 20 22 24 27 27 26 34 49 66 67 57 65 62 56 26 33 54 13 8 13 6 11 11 23 25 38 30 28 16 7 3 61 82 25 29 36 53 54
Wind_Direction_850mb
8 2 2 2 359 353 349 345 340 337 331 326 317 311 304 302 298 293 290 292 295 297 303 313 318 321 330 308 283 283 281 256 212 184 244 232 229 235 241 248 253 245 253 262 261 243 276
11 8 5 4 3 0 358 352 347 342 337 335 333 329 324 315 306 299 291 285 285 291 294 306 312 317 318 278 267 296 263 223 209 235 244 233 240 248 258 253 263 253 240 266 256 240 239
22 17 13 8 2 359 357 355 352 348 345 342 338 332 326 324 325 316 303 291 280 276 285 294 301 304 284 248 216 236 221 221 235 237 246 246 248 253 260 277 260 277 273 261 258 238 232
22 18 14 8 2 357 353 350 348 348 347 345 342 338 333 327 326 326 320 304 285 273 276 285 284 285 259 228 242 251 232 222 229 238 243 256 250 256 256 255 271 268 253 256 235 235 224
22 17 12 7 2 358 354 350 347 344 343 343 343 339 336 335 330 331 330 317 296 270 265 258 262 239 258 242 224 213 214 225 227 233 239 246 248 240 240 242 253 244 239 230 257 199 223
12 10 5 1 358 354 353 350 349 347 343 340 339 340 340 339 337 335 342 333 333 266 249 244 234 247 250 234 229 223 224 222 221 223 228 230 239 231 236 218 229 217 228 251 226 213 205
7 4 359 358 356 354 353 352 351 347 344 342 339 339 342 342 347 350 17 26 308 145 222 224 215 217 290 216 168 197 200 213 215 216 223 215 225 224 227 228 234 263 217 217 251 215 186
1 359 358 356 355 355 355 352 349 348 346 345 342 343 345 345 12 39 18 354 12 319 292 250 252 248 252 250 211 219 202 209 214 216 217 234 227 235 234 238 230 248 264 252 230 176 171
359 359 356 355 355 354 352 349 347 348 346 345 346 348 349 1 45 21 13 348 339 335 278 276 231 232 225 231 225 222 202 208 214 220 222 226 229 224 245 235 245 226 246 251 259 145 134
359 359 357 355 354 353 351 349 348 347 346 345 347 353 358 20 29 352 335 340 333 325 279 252 195 229 220 222 238 225 213 209 229 226 231 237 239 245 217 244 230 244 229 255 253 244 202
358 354 354 352 350 349 348 346 346 347 345 346 349 357 26 24 352 25 326 324 316 301 290 91 118 95 208 208 227 213 219 211 224 222 218 232 243 240 245 230 233 231 243 219 246 253 255
353 351 348 347 348 346 345 344 346 346 348 348 349 352 6 19 346 340 328 317 305 232 239 154 133 213 229 209 228 256 203 226 224 237 241 242 226 229 247 245 207 239 246 289 214 241 241
346 346 346 344 345 343 343 343 345 347 351 350 353 355 5 341 334 332 332 297 235 256 25 339 351 219 229 244 219 226 211 212 219 220 230 231 240 222 227 210 231 227 228 206 219 228 236
343 343 341 341 343 341 339 342 346 348 350 354 1 17 37 10 333 324 328 261 257 316 327 353 335 331 306 265 248 217 238 209 219 227 224 224 220 230 198 215 218 213 223 220 209 215 228
337 336 337 339 341 342 341 344 347 350 347 346 24 8 33 1 316 342 294 244 284 355 342 356 324 288 278 281 276 229 226 237 218 220 230 223 230 214 191 216 232 195 219 229 263 290 276
333 332 334 337 341 344 341 342 345 347 344 345 343 321 206 352 325 305 265 259 305 321 315 313 293 305 293 296 294 265 243 231 227 216 232 245 241 223 200 205 229 240 199 227 241 256 269
328 329 330 334 339 341 341 337 341 342 350 359 24 269 172 344 314 261 256 290 307 305 323 296 293 279 286 285 304 302 300 235 225 226 215 240 249 236 202 197 217 217 232 212 239 248 256
324 324 327 331 336 338 336 334 336 339 346 7 317 268 33 0 275 243 262 283 306 303 296 289 287 269 277 287 297 300 291 287 219 212 213 229 242 252 238 190 210 226 223 228 222 235 266
320 321 323 327 332 335 333 333 327 334 338 341 276 301 264 347 273 305 330 319 309 283 291 290 278 274 268 271 285 276 281 276 280 202 215 212 224 242 255 197 207 225 216 223 220 254 282
314 316 320 324 329 333 332 331 309 311 317 336 297 278 186 261 273 284 303 303 299 301 295 282 284 280 276 260 264 273 295 296 299 253 202 201 200 225 229 202 196 215 227 213 226 233 235
312 315 315 319 322 326 324 322 287 241 226 309 268 354 7 295 302 334 318 311 301 297 294 293 283 261 256 271 286 291 301 329 326 198 185 188 220 221 248 286 201 200 216 219 214 213 228
309 310 312 317 321 324 321 313 275 219 192 233 297 332 339 295 303 303 291 278 276 295 288 286 291 278 276 225 264 295 304 345 307 335 190 177 215 231 249 250 224 198 198 229 204 191 213
304 305 308 314 319 319 319 307 273 200 195 235 262 285 274 284 276 287 303 315 306 295 301 269 285 261 278 287 219 278 285 295 287 300 315 192 199 222 246 217 226 204 192 206 199 214 217
300 301 308 315 320 321 320 306 267 203 198 220 261 296 277 267 279 283 296 295 296 288 293 296 265 303 290 298 282 285 275 267 269 270 265 284 194 224 246 242 217 172 194 215 195 126 99
296 300 308 316 321 322 321 309 260 206 198 211 244 269 291 271 283 288 315 304 295 294 286 281 278 236 281 192 268 268 279 263 260 253 239 236 230 230 245 235 137 160 58 198 174 92 110
292 298 308 317 323 324 324 312 250 204 200 214 238 244 262 316 271 240 309 294 288 314 298 271 255 244 239 242 264 256 258 205 195 180 207 205 253 243 222 222 202 169 160 199 140 163 121
289 294 305 315 321 318 316 315 252 203 201 210 237 244 240 252 277 280 295 309 301 295 286 301 333 241 218 253 251 268 254 275 202 197 187 199 217 226 241 207 295 322 167 164 175 144 117
287 292 301 309 317 314 311 293 263 218 207 213 242 248 242 253 272 278 274 280 274 282 279 305 320 249 226 251 256 268 276 283 273 187 191 194 207 219 242 205 29 289 48 84 109 116 126
286 289 294 302 310 309 294 292 249 230 226 225 246 249 251 254 265 283 283 269 255 258 267 272 286 301 294 274 238 344 304 328 322 194 174 201 209 205 354 95 139 192 142 117 128 120 120